CZ-4 DEB, 26260

Orbit data source: Space-Track

CZ-4 DEB, 26260 is space debris in SSO originally from a launch on Thu, 14 Oct 1999 UTC launched from the Taiyaun Space Center, China (TSC). Debris objects in space refer to the collection of defunct objects orbiting the Earth. Examples of debris include non-operational satellites, rocket bodies, and fragments generated from explosions, collisions, or faulty payload assembly.

Loading next visibility...
Identifier
26260, 1999-057EW
Orbit
SSO
Country
Flag of CNCN / PRC
Related business
Manufacturer
Unknown
Mission
Spacecraft
Bus & Motor
Unknown
Mass
Unknown
Launch date (UTC)
1999-10-14 (26 years ago)
Launch vehicle
Unknown
Launch site
Taiyaun Space Center, China (TSC)
Object type
Payload
Rocket body
Debris
Shape & HBR
Unknown shape, 0.1 m
Radar Cross Section
Small (<0.1 m²)

Expand to show TLE details & history
Last TLE update: 9 hours ago

TLE from 9 hours ago
0 CZ-4 DEB
1 26260U 99057EW  26093.80317039  .00014979  00000-0  20790-2 0  9997
2 26260  98.3403 177.8576 0055462 232.8634 126.7502 14.76944233373128
Epoch: 2026-04-03T19:16Z
TLE epoch observation values (Epoch: 2026-04-03T19:16:33.921Z)
Latitude
0.00003°
Longitude
56.5842°
Altitude
665.419 km
Speed
7.512 km/s
True Right ascension
11h 51m 25s
True Declination
0° 00' 00"
Sunlit
Object was in full shadow at epoch
Visualization orbit readout
Latitude
Unknown
Longitude
Unknown
Altitude
Unknown
Speed
Unknown
Apparent Right ascension
Unknown
Apparent Declination
Unknown
Sunlit
N/A
Visualization observer readout
Local Sidereal Time
09:53:37
Azimuth
Unknown
Elevation
Unknown
Doppler factor
Unknown
Orbital elements
Apogee altitude
674.953 km
Perigee altitude
597.149 km
Semi-major axis
7,014.188 km
Eccentricity
0.00555
Inclination
98.3403°
RAAN
177.8576°
Arg. of periapsis
232.8634°
True anomaly
127.25732°
Mean anomaly
126.7502°
Eccentric anomaly
127.00397°
Mean motion
3.69468 °/min
Orbital period
97.44 mins
BSTAR
0.002079
Loading maneuver chart data...
Computing Atmospheric mass density...
Loading historical data...
Loading historical data...
Loading historical data...
Loading historical data...
Loading historical data...
Loading historical data...
Loading historical data...

Documentation

Showing up to 5 results
|